Погода в Петровке

Украина / Одесская область     46°30′22″N   29°10′13″E
темп.,
°C
ветер,
м/с
пор.,
м/с
влажн.,
%
обл.,
%
осадки,
мм/ч
давл.,
гПа
погр.,
м
2 марта, вт
вт223:00+2с477797 0.1 1033667
02:00+1ссз368195 0.1 1034343
05:00+1сз2583100 0.0 1033272
08:00+2з248193 0.0 1033192
11:00+5зсз456243 0.0 1031929
14:00+8зсз575436 0.0 1029927
17:00+9зсз5105459 0.0 1026782
20:00+6зсз5146530 0.0 1026435
3 марта, ср
ср323:00+5сз515754 0.0 1026594
02:00+4ссз614822 0.0 1028530
05:00+3ссз5118812 0.0 1028472
08:00+3ссз388430 0.0 1030504
11:00+7ссз57592 0.0 10311014
14:00+9ссз56431 0.0 10301126
17:00+8ссз35463 0.0 10281029
20:00+5ю115935 0.0 102822
4 марта, чт
чт423:00+4ю22690 0.0 102722
02:00+3ююз34780 0.0 102657
05:00+3ююз48850 0.0 1023153
08:00+4ююз511811 0.0 1021325
11:00+10ююз710600 0.0 1019552
14:00+13юз79480 0.0 1016811
17:00+13з344516 0.0 1014117
20:00+9ююз22548 0.0 101422
5 марта, пт
пт523:00+7ююз23710 0.0 101324
02:00+7ююз226347 0.0 101322
05:00+6ююз226673 0.0 101222
08:00+6юз226287 0.0 101145
11:00+11зюз3344100 0.0 1011336
14:00+15зсз333574 0.0 10101071
17:00+14сз12423 0.0 100935
20:00+10св46619 0.0 1011151
6 марта, сб
сб623:00+7ссв598367 0.0 1013386
02:00+6с578673 0.1 1015459
05:00+3с81191100 0.1 1017589
08:00+2ссв81266100 0.2 1020823
11:00+3ссв7946100 0.0 10221384
14:00+3с6842100 0.1 10231671
17:00+3с793375 0.0 10251696
20:000ссз344637 0.0 1027109